User: anonymous   Login
Location: Unspecified
(0.0000°N, 0.0000°E)
Time: 14:42:41
(UTC+02:00)
Language:

Cosmos 494 Rocket - Orbit

View from above orbital plane
View from above orbital plane
View from above satellite
View from above satellite

Ground track
Ground track

The orbit data is extracted from the following two-line orbital elements,

1  6061U 72043B   17118.89088321 -.00000004 +00000-0 +68743-5 0  9994
2  6061 074.0556 271.1888 0019271 052.3162 307.9737 14.40494310350965
Epoch (UTC): 28 April 2017 21:22:52
Eccentricity: 0.0019271
inclination: 74.0556°
perigee height: 743 km
apogee height: 770 km
right ascension of ascending node: 271.1888°
argument of perigee: 52.3162°
revolutions per day: 14.40494310
mean anomaly at epoch: 307.9737°
orbit number at epoch: 35096

The dashed part of the orbit path shows where the satellite is in the earth's shadow,  

DLR